Regional Weather Roundup
Issued by NWS Goodland, KS

Home | Current Version | Previous Version | Graphics & Text | Print | Product List | Glossary On
Versions: 1 2 3 4 5 6 7 8 9 10 11 12 13 14 15 16 17 18 19 20 21 22 23 24 25 26 27 28 29 30 31 32 33 34 35 36 37 38 39 40 41 42 43 44 45 46 47 48 49 50
000
ASUS43 KGLD 282108
RWRGLD

GOODLAND FORECAST AREA HOURLY WEATHER ROUNDUP
NATIONAL WEATHER SERVICE GOODLAND KS
300 PM MDT THU AUG 28 2014

...OFFICIAL OBSERVATIONS...

CITY           SKY/WX    TMP DP  RH WIND       PRES   REMARKS
GOODLAND KS    SUNNY     79  56  45 NW13      29.98F
HILL CITY KS   SUNNY     82  63  52 CALM      29.90F
IMPERIAL NEB   MOSUNNY   78  62  57 NW16      29.95F
MCCOOK NEB     PTSUNNY   84  61  45 W9        29.90F
AKRON CO       PTSUNNY   66  56  70 N13       30.08S
BURLINGTON CO  MOSUNNY   78  51  38 NW17      30.02F
LIMON CO       MOSUNNY   71  48  43 NW22G32   30.12F
$$

...UNOFFICIAL OBSERVATIONS...

CITY           SKY/WX    TMP DP  RH WIND       PRES   REMARKS
COLBY KS       MOSUNNY   81  63  54 NW7       29.95F
GOVE KS          N/A     84  32  15 CALM        N/A
NORTON KS      PTSUNNY   81  57  44 SE6       29.88
SHARON SPRINGS   N/A     81  54  39 N10         N/A
WAKEENEY KS      N/A     82  59  45 MISG        N/A
KIT CARSON CO    N/A     77  49  37 N6G15       N/A
YUMA CO          N/A     70  57  63 NW21        N/A
$$



USA.gov is the U.S. government's official web portal to all federal, state and local government web resources and services.